Wind_Speed
43 43 42 42 41 42 42 41 42 42 41 43 42 44 44 45 46 47 46 51 49 47 45 45 42 35 36 36 29 27 26 20 17 22 18 27 26 26 20 20 21 18 15 14 19
45 45 43 44 44 44 43 42 44 42 42 42 44 46 48 47 47 43 49 45 46 46 43 41 40 36 36 35 32 28 26 19 19 24 22 25 27 25 21 20 21 13 15 16 20
47 47 46 43 44 44 44 45 43 42 43 45 45 46 47 48 45 49 45 44 46 45 44 40 40 37 34 32 29 28 24 19 25 22 23 22 26 26 20 20 24 18 17 19 23
48 48 45 43 44 44 45 45 43 44 45 44 44 46 49 44 47 49 45 45 45 46 44 38 38 35 33 31 29 32 26 24 24 25 23 21 24 24 20 20 22 21 18 21 24
47 44 43 43 43 44 45 45 46 48 46 42 44 44 45 44 44 44 48 47 45 51 41 40 38 35 35 32 32 31 29 24 26 25 23 22 21 21 20 19 18 16 15 19 19
46 43 40 42 44 43 46 47 48 46 44 42 41 43 47 46 43 42 46 48 48 50 44 42 39 37 36 36 34 32 31 25 25 25 25 22 20 21 20 18 17 14 13 18 19
44 43 42 42 43 43 45 48 48 46 44 41 40 45 48 47 45 42 43 50 49 47 47 45 43 41 39 36 33 32 31 27 25 25 24 24 18 21 21 18 17 14 13 15 16
42 43 44 43 42 43 44 46 45 46 44 40 42 45 45 45 48 41 42 51 46 39 46 44 44 43 42 39 34 33 32 26 23 24 24 24 16 20 23 18 16 14 14 15 15
44 44 43 44 43 42 43 43 45 44 42 40 42 45 44 41 42 37 38 46 44 45 52 48 46 44 41 37 34 32 28 25 23 24 23 21 18 21 22 18 18 16 14 14 17
44 45 43 44 44 42 42 44 43 44 41 40 42 43 40 39 43 34 36 38 42 45 53 49 47 45 43 41 34 30 28 22 22 21 25 22 18 21 26 18 19 17 15 14 16
45 44 44 44 45 44 44 43 45 44 38 39 41 37 40 35 39 30 29 34 38 41 39 51 51 48 43 39 32 32 21 19 24 20 28 20 19 18 22 18 21 18 17 14 15
47 46 45 45 45 45 45 44 43 43 36 37 38 36 35 36 30 29 27 34 40 37 42 56 53 50 46 40 37 34 28 28 27 25 25 21 22 21 23 20 20 21 19 16 14
49 48 49 49 47 47 46 44 42 41 38 37 37 34 34 29 25 29 22 30 36 35 41 46 50 49 48 43 39 32 29 28 28 22 25 23 24 22 22 23 21 19 19 19 11
51 51 50 51 47 47 45 43 40 39 38 38 35 36 30 27 26 27 18 26 34 35 36 42 49 50 46 43 40 33 29 29 34 28 26 19 22 21 20 22 22 21 17 18 12
52 52 51 50 48 46 44 41 39 39 36 37 33 32 29 26 26 26 25 19 26 34 40 41 46 46 45 43 39 32 33 36 36 27 28 28 23 14 16 19 22 22 19 18 13
53 51 51 49 47 47 44 42 40 39 41 35 33 31 29 24 24 25 22 17 26 31 37 46 47 51 45 42 40 34 38 39 35 26 33 26 24 15 11 16 19 23 19 19 11
53 51 49 48 46 45 44 43 41 39 38 36 31 29 28 25 26 21 22 21 19 27 36 43 51 49 44 42 41 40 38 34 31 31 31 26 23 20 15 20 20 20 19 17 12
53 50 49 47 46 44 44 44 44 42 37 34 31 29 27 24 25 23 21 21 23 14 22 35 47 48 46 48 44 40 39 37 30 28 29 27 29 17 19 19 22 21 20 18 11
53 51 48 46 45 46 45 47 42 40 37 34 33 29 29 25 25 25 23 22 22 17 16 22 30 35 43 44 46 41 42 35 30 22 30 26 26 23 26 18 17 19 22 20 16
55 52 48 47 46 47 47 46 41 39 37 36 34 32 27 29 25 25 28 27 23 22 17 13 25 30 35 39 44 43 35 37 37 35 31 24 14 14 24 20 18 20 21 23 18
53 51 50 50 51 51 50 44 41 41 39 37 37 34 31 30 28 27 28 33 26 23 22 16 14 26 32 37 36 40 44 42 39 43 32 29 25 25 28 23 19 20 24 25 22
56 51 48 50 51 50 48 43 42 41 39 39 37 36 33 33 31 29 31 33 28 25 23 22 18 19 16 23 29 32 40 40 37 29 37 36 25 22 26 29 24 19 20 24 24
57 53 50 48 47 46 44 43 42 40 40 39 38 38 36 33 33 33 33 33 29 31 28 30 22 15 18 22 30 35 27 29 35 40 26 29 33 25 21 30 26 26 26 25 25
53 52 50 50 44 41 40 41 40 39 40 39 37 36 36 34 36 36 34 34 28 28 28 31 28 22 25 25 16 30 25 32 33 34 35 36 29 25 27 34 34 29 24 24 24
51 48 46 46 43 41 39 38 38 38 39 38 38 36 34 34 34 35 38 38 34 34 33 30 26 26 23 24 32 23 30 33 31 27 30 28 27 31 35 36 27 28 31 31 31
46 43 43 43 41 39 38 37 35 35 36 36 37 36 36 38 37 36 40 43 41 41 39 32 28 27 28 24 23 25 25 24 24 22 21 20 23 18 33 29 27 27 27 32 35
41 41 43 43 40 39 37 34 33 34 34 34 36 37 36 32 38 40 40 44 47 46 46 40 36 30 33 27 27 25 24 25 24 25 22 20 20 31 31 30 29 30 30 30 30
Wind_Direction
276 275 276 280 278 277 276 272 271 271 273 275 279 279 280 279 279 275 270 267 263 260 254 254 252 251 255 257 253 247 253 262 268 270 265 273 283 291 289 291 295 300 305 305 303
284 280 280 281 279 276 273 273 273 276 276 280 284 287 288 287 284 272 274 262 258 253 247 246 244 242 248 251 249 245 246 249 252 256 264 274 284 288 289 293 292 295 307 307 307
285 281 279 278 279 276 274 274 276 279 283 286 288 287 286 287 282 270 265 262 254 247 241 236 238 239 244 245 246 243 242 238 252 251 256 267 281 286 286 287 282 291 289 300 304
280 280 279 277 276 273 273 275 278 283 284 285 286 288 289 288 283 275 265 258 253 247 240 231 232 233 235 235 236 238 237 238 250 249 248 259 274 285 288 284 294 294 294 293 306
280 275 276 278 276 277 278 278 279 283 284 288 288 290 292 293 290 270 260 252 251 249 231 231 228 227 227 227 229 234 237 235 246 248 247 253 272 282 284 289 296 290 297 300 309
278 276 276 279 277 279 280 280 280 283 287 290 293 293 297 299 295 276 254 249 249 251 226 227 225 223 221 223 223 230 233 236 245 247 246 252 267 277 275 293 289 291 288 298 308
279 279 280 279 280 282 282 280 281 284 284 290 293 291 297 299 300 281 258 245 244 250 219 220 220 218 219 220 222 229 235 233 244 248 251 254 266 279 278 286 289 290 285 295 308
275 278 278 279 278 279 281 281 282 282 285 291 293 293 296 299 305 284 250 244 238 240 216 217 222 220 218 216 216 227 234 236 241 248 251 252 265 283 277 281 288 289 283 285 302
274 276 277 278 277 277 279 279 280 281 285 290 290 292 296 300 304 284 257 241 236 236 219 213 217 220 220 219 216 223 231 234 242 248 253 253 256 273 275 278 283 287 283 275 283
272 274 274 275 276 276 276 278 279 281 285 289 287 293 298 299 307 279 261 246 233 241 220 208 215 218 218 216 215 221 231 233 238 255 246 253 243 258 275 272 277 284 285 270 275
269 270 270 271 273 274 275 278 278 276 281 284 288 293 296 297 311 287 254 247 233 234 244 209 213 214 216 215 216 221 224 231 237 244 248 249 245 249 264 270 280 286 287 269 263
271 270 269 269 271 272 274 275 276 280 283 284 286 293 299 298 301 298 246 238 233 239 243 219 214 212 214 212 215 215 223 225 230 237 250 252 242 237 249 258 272 283 283 269 260
268 268 269 268 268 269 271 272 274 279 280 276 279 289 299 295 304 310 263 238 233 239 232 228 217 215 212 211 213 212 219 223 237 238 250 249 245 240 244 256 268 269 274 267 261
265 265 263 264 264 266 268 268 273 280 281 275 282 291 297 296 302 320 275 239 232 237 223 228 221 213 213 211 213 210 216 223 234 237 248 253 244 245 248 254 260 264 269 267 258
265 264 262 262 264 263 264 265 271 277 282 275 281 284 291 295 297 306 315 246 229 220 219 219 222 215 213 212 213 207 212 222 233 233 241 240 249 236 246 247 259 266 273 280 260
262 261 261 260 261 261 261 262 266 272 276 279 278 281 285 288 289 295 292 287 234 225 220 224 218 219 215 213 214 204 219 224 230 228 240 238 246 250 244 257 265 263 273 268 258
261 259 259 260 258 258 259 260 261 265 270 274 279 278 278 282 283 281 289 298 270 226 224 229 227 220 216 221 215 208 217 222 231 229 243 247 251 259 223 236 248 258 266 260 250
261 259 257 257 258 256 256 256 256 263 267 269 272 274 274 275 277 278 280 283 293 255 225 221 220 218 215 219 218 214 219 226 234 240 246 251 244 251 260 235 249 257 260 261 244
258 257 257 256 256 255 254 254 257 259 264 266 267 268 271 267 270 269 267 267 275 290 244 237 227 220 215 214 219 209 218 218 213 226 237 228 250 235 255 257 246 246 257 258 239
255 254 253 254 254 253 252 254 257 260 261 260 262 264 263 266 262 263 265 265 263 271 279 243 242 229 225 216 218 220 216 217 215 218 219 213 246 230 243 245 247 239 248 254 245
252 250 248 249 249 250 252 255 257 259 258 257 259 261 261 262 262 258 254 263 257 260 270 273 258 232 230 222 222 221 215 216 224 232 231 242 233 243 243 242 235 236 244 251 248
247 246 246 246 247 249 251 253 254 255 256 257 256 259 261 261 260 257 256 260 252 247 254 266 267 249 239 242 217 215 222 219 221 229 237 235 219 227 235 242 235 235 245 242 240
244 242 240 241 243 246 248 249 250 253 255 256 257 257 257 256 255 254 252 255 251 247 242 249 264 239 180 218 237 205 211 218 227 227 220 231 233 229 229 238 236 219 230 233 237
241 239 237 240 241 243 244 246 248 250 253 256 259 258 258 254 253 251 250 248 242 240 250 244 249 249 222 213 230 236 213 218 219 226 230 233 232 224 237 245 247 233 230 238 235
233 236 236 240 239 240 242 245 246 250 252 256 260 261 262 257 251 247 241 240 230 228 232 245 243 244 245 241 218 217 239 234 233 231 233 234 241 239 242 246 249 240 224 219 219
228 230 230 232 235 238 241 243 247 251 253 257 262 264 262 260 255 241 232 231 226 219 223 228 230 230 242 243 245 234 234 240 248 242 240 242 247 246 256 250 249 249 247 234 236
223 224 228 228 229 235 239 241 243 244 251 256 260 262 258 255 252 247 236 231 229 221 212 218 209 206 227 240 240 240 241 239 241 240 242 241 247 245 257 260 258 245 245 249 244
Height
5778 5777 5776 5775 5774 5773 5772 5770 5769 5767 5765 5763 5760 5757 5756 5755 5753 5752 5752 5753 5755 5758 5761 5764 5766 5769 5771 5774 5776 5775 5777 5778 5780 5779 5778 5773 5774 5771 5768 5766 5764 5762 5759 5756 5754
5768 5767 5766 5766 5765 5764 5762 5761 5759 5757 5755 5752 5749 5747 5744 5742 5741 5741 5740 5741 5743 5745 5749 5754 5756 5757 5762 5767 5769 5770 5770 5772 5774 5773 5772 5770 5769 5767 5764 5761 5760 5760 5757 5754 5752
5756 5756 5756 5755 5755 5754 5753 5752 5750 5747 5744 5741 5738 5736 5734 5731 5730 5724 5730 5732 5734 5736 5738 5742 5745 5748 5754 5759 5763 5766 5765 5765 5767 5767 5766 5766 5765 5763 5761 5759 5757 5757 5755 5752 5749
5746 5746 5745 5745 5744 5744 5743 5742 5740 5737 5734 5731 5728 5726 5724 5721 5719 5717 5721 5721 5724 5727 5729 5732 5736 5740 5746 5750 5755 5757 5758 5758 5761 5761 5761 5761 5761 5760 5758 5756 5754 5753 5751 5749 5746
5735 5734 5734 5735 5734 5734 5732 5731 5730 5728 5725 5721 5720 5718 5715 5712 5710 5704 5707 5709 5713 5716 5719 5724 5728 5732 5736 5741 5745 5750 5752 5752 5754 5755 5755 5755 5757 5755 5754 5752 5751 5749 5748 5745 5743
5725 5724 5722 5724 5725 5723 5722 5722 5721 5718 5715 5714 5711 5709 5704 5704 5698 5694 5694 5698 5702 5707 5709 5715 5719 5724 5728 5732 5737 5743 5745 5746 5747 5750 5750 5751 5752 5751 5750 5749 5748 5746 5745 5743 5741
5715 5715 5714 5714 5713 5713 5713 5712 5711 5708 5707 5705 5703 5700 5696 5691 5686 5683 5683 5685 5690 5697 5699 5705 5710 5714 5720 5725 5730 5735 5739 5740 5742 5744 5745 5746 5748 5747 5746 5745 5744 5742 5741 5740 5739
5703 5704 5705 5705 5703 5704 5704 5702 5702 5700 5697 5695 5694 5690 5688 5680 5674 5671 5670 5673 5682 5688 5690 5697 5702 5707 5711 5717 5722 5728 5732 5735 5738 5739 5740 5741 5744 5743 5742 5741 5740 5737 5737 5736 5736
5693 5694 5694 5696 5695 5694 5695 5694 5694 5692 5689 5688 5686 5681 5679 5674 5667 5661 5662 5665 5672 5679 5681 5686 5693 5701 5707 5712 5716 5721 5727 5730 5733 5734 5734 5736 5738 5738 5738 5737 5736 5733 5733 5732 5732
5681 5684 5684 5685 5687 5686 5685 5686 5684 5684 5682 5681 5677 5674 5671 5667 5660 5655 5654 5658 5665 5669 5673 5678 5685 5693 5698 5703 5709 5717 5721 5726 5729 5730 5729 5731 5733 5735 5734 5734 5732 5729 5729 5729 5728
5670 5671 5673 5674 5677 5677 5678 5676 5678 5677 5676 5673 5668 5667 5660 5660 5656 5648 5650 5651 5658 5662 5668 5671 5677 5684 5692 5698 5703 5709 5716 5722 5723 5726 5723 5727 5727 5729 5730 5728 5729 5726 5725 5725 5725
5659 5661 5661 5663 5665 5668 5668 5669 5668 5667 5669 5665 5661 5658 5657 5652 5651 5644 5645 5647 5650 5656 5659 5662 5667 5678 5683 5690 5694 5701 5707 5712 5716 5717 5718 5721 5723 5724 5726 5725 5725 5723 5722 5722 5721
5648 5649 5652 5652 5654 5659 5660 5660 5660 5658 5659 5657 5654 5653 5651 5648 5643 5639 5637 5639 5644 5648 5650 5657 5668 5671 5674 5681 5687 5694 5700 5706 5710 5712 5713 5716 5717 5719 5721 5720 5721 5721 5720 5718 5718
5636 5639 5641 5643 5646 5647 5651 5651 5650 5650 5648 5649 5648 5647 5645 5642 5638 5636 5633 5634 5637 5642 5645 5649 5656 5661 5668 5674 5680 5687 5695 5699 5699 5705 5708 5710 5712 5713 5717 5715 5716 5716 5716 5715 5714
5625 5628 5630 5631 5634 5637 5640 5640 5641 5643 5642 5641 5641 5640 5639 5639 5634 5632 5626 5629 5629 5633 5637 5644 5650 5655 5660 5668 5674 5683 5686 5689 5692 5699 5702 5704 5707 5710 5712 5713 5713 5713 5712 5711 5710
5611 5614 5618 5619 5622 5626 5628 5629 5632 5635 5630 5632 5633 5634 5634 5633 5631 5628 5628 5625 5622 5625 5630 5637 5642 5646 5655 5658 5665 5674 5677 5682 5685 5694 5693 5699 5703 5706 5710 5709 5708 5707 5708 5708 5708
5597 5601 5604 5608 5610 5613 5616 5620 5623 5624 5625 5625 5625 5627 5627 5627 5626 5625 5623 5622 5621 5621 5623 5631 5636 5642 5648 5653 5660 5664 5670 5676 5681 5686 5690 5696 5698 5701 5702 5703 5703 5703 5704 5704 5704
5583 5588 5591 5594 5598 5600 5604 5608 5611 5613 5616 5619 5619 5619 5620 5621 5620 5619 5618 5619 5619 5617 5618 5623 5630 5634 5639 5646 5653 5659 5666 5674 5678 5682 5687 5689 5691 5699 5695 5697 5699 5699 5700 5700 5701
5569 5573 5579 5582 5585 5588 5592 5594 5601 5604 5607 5610 5611 5613 5612 5615 5615 5614 5615 5616 5616 5616 5617 5618 5624 5626 5631 5638 5645 5652 5656 5667 5669 5673 5679 5684 5687 5692 5691 5692 5694 5695 5694 5694 5695
5553 5559 5566 5568 5571 5575 5579 5585 5589 5593 5597 5600 5602 5605 5607 5607 5609 5610 5608 5610 5612 5613 5614 5616 5618 5621 5624 5630 5637 5643 5653 5658 5659 5665 5670 5677 5681 5688 5687 5688 5688 5690 5688 5688 5690
5536 5543 5549 5552 5556 5561 5567 5574 5577 5580 5585 5589 5592 5596 5598 5599 5601 5604 5604 5603 5607 5609 5610 5612 5614 5618 5620 5625 5631 5638 5642 5647 5655 5659 5664 5670 5677 5679 5680 5681 5682 5684 5683 5685 5685
5518 5528 5535 5536 5542 5548 5556 5562 5565 5568 5572 5576 5582 5585 5589 5590 5593 5596 5597 5597 5602 5605 5607 5608 5609 5612 5618 5621 5624 5631 5639 5642 5648 5653 5657 5663 5670 5667 5670 5673 5675 5679 5679 5677 5679
5501 5512 5519 5522 5529 5537 5544 5548 5551 5557 5560 5565 5569 5574 5578 5581 5584 5587 5589 5591 5595 5598 5601 5601 5606 5609 5613 5617 5618 5622 5629 5635 5640 5645 5649 5654 5661 5662 5661 5664 5667 5669 5669 5672 5675
5486 5496 5505 5509 5520 5525 5531 5535 5540 5546 5550 5553 5557 5562 5566 5571 5573 5578 5581 5585 5590 5593 5594 5597 5602 5605 5609 5613 5618 5619 5624 5627 5632 5636 5642 5645 5651 5655 5656 5657 5659 5662 5666 5668 5670
5470 5485 5493 5499 5508 5514 5519 5525 5529 5534 5539 5542 5545 5550 5554 5558 5562 5566 5572 5576 5583 5588 5590 5592 5596 5599 5601 5603 5609 5614 5616 5621 5624 5630 5634 5638 5641 5646 5647 5648 5652 5654 5658 5660 5661
5461 5475 5481 5488 5496 5503 5508 5514 5520 5524 5528 5531 5534 5537 5541 5545 5548 5553 5559 5565 5572 5578 5583 5586 5592 5593 5596 5598 5601 5604 5609 5615 5619 5623 5629 5632 5635 5638 5636 5640 5643 5646 5649 5653 5655
5453 5462 5469 5477 5485 5492 5499 5505 5510 5514 5518 5522 5524 5527 5531 5533 5536 5541 5547 5553 5559 5566 5574 5580 5586 5588 5590 5591 5596 5601 5605 5608 5613 5617 5621 5624 5627 5625 5628 5632 5635 5639 5642 5644 5646